USA 164

导读 | 豆包AI

USA 164是美国于2002年1月14日发射的军用侦察卫星,隶属于美国国家侦察局(NRO),采用泰坦IVB运载火箭从范登堡空军基地发射升空。作为美国下一代光学侦察系统的关键成员,它搭载了先进成像载荷,运行在近地轨道,主要承担全球战略目标成像侦察任务,为美军提供重要情报支撑,至今仍是美国空间侦察体系的重要组成部分。

Basic Information
目录编号:
27168
目录名称:
USA 164
国际标识:
2002-001A
轨道中心:
EARTH
卫星名称:
USA 164
卫星全名:
--
卫星状态:
在轨 (已飞行8873 天)
发射日期:
2002-01-14 UTC
国别 :
美国 (US)
星等 :
--
Orbit Information
数据来源 国际轨道数据 AOE轨道数据
星历时间 2026-05-01T06:02:28+0800
9小时前
查看轨道信息
2026-05-01T05:00:00+0800
10小时前
查看轨道信息
半长轴 42165.065km 42165.093km
偏心率 0.0100067 0.0100023
轨道倾角 11.125° 11.125°
近地点辐角 6.817° 6.802°
升交点赤经 22.195° 22.194°
平近点角 179.382° 163.736°
近地点 35364.994km 35365.208km
远地点 36208.862km 36208.704km
周期 1436.114分钟 1436.115分钟
每日圈数 1.002706 1.002705
Detailed Information
使用方式:
暂无
2D Orbit Map
3D Orbit Map
Orbit Altitude Analysis Chart
Orbit Inclination Analysis Chart
Orbit Comprehensive Analysis Chart
View Comprehensive Chart